EW5758 Weather Reports


time (UTC)temp
C
wind
direction
speed
KPH
gust
KPH
rain 1hr
cm
rain 24hr
cm
rain mn
cm
humidity
%
barometer
mb
20260506221538 8 149 9.7 0.0 0.00 0.00 0.00 88 1012.1
20260506221507 7 117 9.7 0.0 0.00 0.00 0.00 88 1012.1
20260506221040 8 126 11.3 0.0 0.00 0.00 0.00 88 1012.2
20260506220523 8 110 11.3 0.0 0.00 0.00 0.00 88 1012.2
20260506220110 7 132 11.3 0.0 0.00 0.00 0.00 87 1012.2
20260506220030 8 112 11.3 0.0 0.00 0.00 0.79 87 1012.2
20260506215520 8 125 11.3 0.0 0.00 0.00 0.79 87 1012.1
20260506215022 8 124 9.7 0.0 0.00 0.00 0.79 88 1012.0
20260506214618 8 127 9.7 0.0 0.00 0.00 0.79 88 1012.0
20260506214514 8 111 9.7 0.0 0.00 0.00 0.79 88 1012.0
20260506213518 8 96 8.0 0.0 0.00 0.00 0.79 87 1012.0
20260506213046 7 123 8.0 0.0 0.00 0.00 0.79 87 1012.1
20260506213025 8 114 8.0 0.0 0.00 0.00 0.79 87 1012.0
20260506212620 8 112 8.0 0.0 0.00 0.00 0.79 87 1012.0
20260506145031 11 143 12.9 0.0 0.00 0.00 0.79 78 1009.6
20260506144559 11 153 14.5 0.0 0.00 0.00 0.79 81 1009.7
20260506144530 11 171 14.5 0.0 0.00 0.00 0.79 80 1009.7
20260506144021 11 155 16.1 0.0 0.00 0.00 0.79 81 1009.7
20260506143547 11 133 16.1 0.0 0.00 0.00 0.79 80 1009.6
20260506143101 11 186 16.1 0.0 0.00 0.00 0.79 82 1009.7
20260506143033 11 165 16.1 0.0 0.00 0.00 0.79 82 1009.6
20260506142610 10 116 16.1 0.0 0.00 0.00 0.79 83 1009.7
20260506142044 10 139 14.5 0.0 0.00 0.00 0.79 84 1009.7
20260506141647 10 134 14.5 0.0 0.00 0.00 0.79 84 1009.7
20260506141523 10 105 14.5 0.0 0.00 0.00 0.79 85 1009.7
20260506141017 10 167 14.5 0.0 0.00 0.00 0.79 84 1009.7
20260506140515 10 146 12.9 0.0 0.00 0.00 0.79 86 1009.7
20260506140034 10 134 11.3 0.0 0.00 0.00 0.79 85 1009.8
20260506135528 10 167 11.3 0.0 0.00 0.00 0.79 85 1009.8
20260506135032 10 149 12.9 0.0 0.00 0.00 0.79 86 1009.8
20260506134621 9 120 12.9 0.0 0.00 0.00 0.79 86 1009.8
20260506134526 10 152 12.9 0.0 0.00 0.00 0.79 86 1009.9
20260506134030 10 143 11.3 0.0 0.00 0.00 0.79 86 1009.9
20260506133542 10 170 12.9 0.0 0.00 0.00 0.79 85 1009.8
20260506133051 10 140 11.3 0.0 0.00 0.00 0.79 86 1009.8
20260506133021 10 144 11.3 0.0 0.00 0.00 0.79 86 1009.8
20260506132614 10 134 12.9 0.0 0.00 0.00 0.79 86 1009.8
20260506132019 10 125 12.9 0.0 0.00 0.00 0.79 87 1009.8
20260506131537 9 144 14.5 0.0 0.00 0.00 0.79 87 1009.6
20260506131520 10 130 14.5 0.0 0.00 0.00 0.79 87 1009.6
20260506131050 10 132 16.1 0.0 0.00 0.00 0.79 87 1009.6
20260506130522 10 163 16.1 0.0 0.00 0.00 0.79 87 1009.6
20260506130108 9 145 14.5 0.0 0.00 0.00 0.79 87 1009.6
20260506130021 10 157 14.5 0.0 0.00 0.00 0.79 87 1009.6
20260506125516 10 161 14.5 0.0 0.00 0.00 0.79 88 1009.6
20260506125039 10 136 14.5 0.0 0.00 0.00 0.79 88 1009.6
20260506124610 9 131 14.5 0.0 0.00 0.00 0.79 88 1009.6
20260506124526 10 152 14.5 0.0 0.00 0.00 0.79 88 1009.5
20260506124032 10 147 12.9 0.0 0.00 0.00 0.79 88 1009.5
20260506123536 10 136 14.5 0.0 0.00 0.00 0.79 88 1009.4
20260506123114 9 132 14.5 0.0 0.00 0.00 0.79 89 1009.3
20260506123036 10 120 14.5 0.0 0.00 0.00 0.79 89 1009.4
20260506122534 10 149 14.5 0.0 0.00 0.00 0.79 88 1009.4
20260506122041 10 158 14.5 0.0 0.00 0.00 0.79 87 1009.2
20260506121545 10 122 14.5 0.0 0.00 0.00 0.79 87 1009.2
20260506121513 9 143 14.5 0.0 0.00 0.00 0.79 87 1009.2
20260506121036 10 156 16.1 0.0 0.00 0.00 0.79 87 1009.1
20260506120543 10 155 16.1 0.0 0.00 0.00 0.79 86 1009.0
20260506120030 10 161 14.5 0.0 0.00 0.00 0.79 87 1009.0
20260506120012 10 138 14.5 0.0 0.00 0.00 0.79 87 1009.0
20260506115550 10 163 12.9 0.0 0.00 0.00 0.79 86 1009.0
20260506115028 10 126 11.3 0.0 0.00 0.00 0.79 87 1009.0
20260506114557 10 197 11.3 0.0 0.00 0.00 0.79 87 1008.9
20260506114518 10 126 11.3 0.0 0.00 0.00 0.79 87 1009.0
20260506114033 10 154 11.3 0.0 0.00 0.00 0.79 89 1008.9
20260506113538 10 150 12.9 0.0 0.00 0.00 0.79 89 1008.9
20260506113022 10 122 12.9 0.0 0.00 0.00 0.79 90 1009.1
20260506113003 9 132 12.9 0.0 0.00 0.00 0.79 90 1009.0
20260506112524 9 97 12.9 0.0 0.00 0.00 0.79 90 1008.9
20260506112028 9 164 12.9 0.0 0.00 0.00 0.79 91 1008.9
20260506111558 8 152 12.9 0.0 0.00 0.00 0.79 91 1008.9
20260506111522 9 135 12.9 0.0 0.00 0.00 0.79 91 1008.9
20260506111028 9 171 14.5 0.0 0.00 0.00 0.79 91 1009.0
20260506110531 8 174 14.5 0.0 0.00 0.00 0.79 91 1009.0
20260506110105 8 142 12.9 0.0 0.00 0.00 0.79 92 1009.0
20260506110016 8 200 14.5 0.0 0.00 0.00 0.79 92 1009.0
20260506105524 8 135 14.5 0.0 0.00 0.00 0.79 92 1009.1
20260506105037 8 134 16.1 0.0 0.00 0.00 0.79 92 1009.1
20260506104612 8 127 17.7 0.0 0.00 0.00 0.79 92 1009.1
20260506104525 8 149 16.1 0.0 0.00 0.00 0.79 93 1009.1
20260506104040 8 163 16.1 0.0 0.00 0.00 0.79 93 1009.1
20260506103523 8 161 14.5 0.0 0.00 0.00 0.79 93 1009.1
20260506103118 8 130 12.9 0.0 0.00 0.00 0.76 93 1009.0
20260506103052 8 131 12.9 0.0 0.00 0.00 0.76 93 1009.1
20260506102519 8 178 12.9 0.0 0.00 0.00 0.76 93 1009.0
20260506102024 8 141 16.1 0.0 0.00 0.00 0.76 93 1009.0
20260506101637 8 142 16.1 0.0 0.00 0.00 0.71 93 1008.9
20260506101526 8 130 14.5 0.0 0.00 0.00 0.74 93 1008.9
20260506101038 8 138 12.9 0.0 0.00 0.00 0.74 93 1008.8
20260506100528 8 149 12.9 0.0 0.00 0.00 0.71 93 1008.8
20260506100032 8 147 12.9 0.0 0.00 0.00 0.71 93 1008.7
20260506100010 8 130 12.9 0.0 0.00 0.00 0.71 93 1008.7
20260506095553 8 129 14.5 0.0 0.00 0.00 0.69 93 1008.7
20260506095023 8 120 11.3 0.0 0.00 0.00 0.64 93 1008.6
20260506094528 8 138 9.7 0.0 0.00 0.00 0.61 93 1008.5
20260506094514 8 126 9.7 0.0 0.00 0.00 0.61 93 1008.5
20260506094050 8 133 9.7 0.0 0.00 0.00 0.56 93 1008.5
20260506093529 8 138 11.3 0.0 0.00 0.00 0.51 93 1008.4
20260506093102 8 123 12.9 0.0 0.00 0.00 0.46 93 1008.3
20260506093027 8 127 14.5 0.0 0.00 0.00 0.43 93 1008.3
20260506092529 8 130 16.1 0.0 0.00 0.00 0.41 92 1008.2
20260506092033 8 133 14.5 0.0 0.00 0.00 0.36 92 1008.1
20260506091608 8 139 12.9 0.0 0.00 0.00 0.30 92 1008.1
20260506091518 9 131 12.9 0.0 0.00 0.00 0.30 92 1008.1
20260506091017 9 145 9.7 0.0 0.00 0.00 0.25 92 1008.0
20260506090513 9 141 9.7 0.0 0.00 0.00 0.20 92 1008.0
20260506090112 9 125 9.7 0.0 0.00 0.00 0.18 92 1007.8
20260506090033 9 134 9.7 0.0 0.00 0.00 0.18 92 1007.8
20260506085531 9 120 8.0 0.0 0.00 0.00 0.15 92 1007.7
20260506085029 9 111 8.0 0.0 0.00 0.00 0.13 92 1007.6
20260506084606 9 119 8.0 0.0 0.00 0.00 0.10 92 1007.5
20260506084525 9 122 8.0 0.0 0.00 0.00 0.10 92 1007.5
20260506084031 9 112 8.0 0.0 0.00 0.00 0.08 92 1007.3
20260506083542 9 114 8.0 0.0 0.00 0.00 0.05 91 1007.2
20260506083054 9 105 8.0 0.0 0.00 0.00 0.05 91 1007.1
20260506083021 9 116 8.0 0.0 0.00 0.00 0.05 91 1007.2
20260506082527 9 97 8.0 0.0 0.00 0.00 0.05 91 1007.1
20260506082030 9 113 8.0 0.0 0.00 0.00 0.05 91 1007.0
20260506081537 9 114 8.0 0.0 0.00 0.00 0.03 91 1007.0
20260506081525 9 126 8.0 0.0 0.00 0.00 0.03 91 1006.9
20260506081037 9 119 8.0 0.0 0.00 0.00 0.03 91 1006.9
20260506080525 9 149 6.4 0.0 0.00 0.00 0.03 91 1006.8
20260506073518 9 126 4.8 0.0 0.00 0.00 0.00 91 1006.7
20260506073051 9 147 3.2 0.0 0.00 0.00 0.00 92 1006.6
20260506073023 9 130 3.2 0.0 0.00 0.00 0.00 92 1006.7
20260506072514 9 141 3.2 0.0 0.00 0.00 0.00 92 1006.6
20260506072037 9 145 3.2 0.0 0.00 0.00 0.00 91 1006.6
20260506071551 9 139 3.2 0.0 0.00 0.00 0.00 92 1006.5
20260506071527 9 148 3.2 0.0 0.00 0.00 0.00 92 1006.5
20260506071018 9 172 3.2 0.0 0.00 0.00 0.00 92 1006.5
20260506070554 9 178 1.6 0.0 0.00 0.00 0.00 93 1006.4
20260506062514 8 57 0.0 0.0 0.00 0.00 0.00 94 1006.6
20260506062022 8 57 0.0 0.0 0.00 0.00 0.00 94 1006.6
20260506061557 8 57 1.6 0.0 0.00 0.00 0.00 94 1006.6
20260506061520 8 57 1.6 0.0 0.00 0.00 0.00 94 1006.7
20260506061042 8 57 3.2 0.0 0.00 0.00 0.00 93 1006.7
20260506060539 8 57 3.2 0.0 0.00 0.00 0.00 94 1006.7